User: anonymous   Login
Location: Unspecified
(0.0000°N, 0.0000°E)
Time: 08:50:33
(UTC+02:00)
Language:

Cosmos 1626 Rocket - Orbit

View from above orbital plane
View from above orbital plane
View from above satellite
View from above satellite

Ground track
Ground track

The orbit data is extracted from the following two-line orbital elements,

1 15495U 85009B   15245.54437652  .00000135  00000-0  13417-4 0  9998
2 15495  82.5220  79.6553 0019424 330.4159  29.5955 14.83600155653041
Epoch (UTC): 02 September 2015 13:03:54
Eccentricity: 0.0019424
inclination: 82.5220°
perigee height: 604 km
apogee height: 631 km
right ascension of ascending node: 79.6553°
argument of perigee: 330.4159°
revolutions per day: 14.83600155
mean anomaly at epoch: 29.5955°
orbit number at epoch: 65304

The dashed part of the orbit path shows where the satellite is in the earth's shadow,  

DLR